Tracking 25689 objects as of 7-Jul-2022
HD Live streaming from Space Station
objects crossing your sky now

FENGYUN 1C DEB

Track FENGYUN 1C DEB now!
10-day predictions


NORAD ID: 32106
Int'l Code: 1999-025CQY
Perigee: 779.0 km
Apogee: 1,004.3 km
Inclination: 101.5 °
Period: 102.7 minutes
Semi major axis: 7262 km
RCS: 0.0084 m2 (small)
Launch date: May 10, 1999
Source: People's Republic of China (PRC)
Launch site: Taiyaun Space Center, China (TSC)

Note: This is SATELLITE DEBRIS
aabbcc
Your satellite tracking list
Your tracking list is empty




NASA's NSSDC Master Catalog

Two Line Element Set (TLE):
1 32106U 99025CQY 22187.73268087  .00001968  00000-0  11837-2 0  9994
2 32106 101.4792 153.7250 0155161  47.5572 313.8586 14.02682179516691
Source of the keplerian elements: AFSPC